TimeMST,TemperatureF,Dew PointF,Humidity,Sea Level PressureIn,VisibilityMPH,Wind Direction,Wind SpeedMPH,Gust SpeedMPH,PrecipitationIn,Events,Conditions,WindDirDegrees,DateUTC
12:00 AM,18.9,17.2,93,30.27,-9999.0,WSW,17.3,-,N/A,,Unknown,250,2012-11-13 07:00:00
1:00 AM,19.0,17.4,93,30.26,-9999.0,WSW,17.3,-,N/A,,Unknown,250,2012-11-13 08:00:00
2:00 AM,19.2,17.6,93,30.26,-9999.0,West,13.8,-,N/A,,Unknown,270,2012-11-13 09:00:00
3:00 AM,19.8,18.1,93,30.27,-9999.0,West,19.6,-,N/A,,Unknown,260,2012-11-13 10:00:00
4:00 AM,19.8,18.3,94,30.27,-9999.0,West,17.3,-,N/A,,Unknown,260,2012-11-13 11:00:00
5:00 AM,20,18,88,30.27,,WSW,18.4,,,,,250,2012-11-13 12:00:00
5:00 AM,19.6,18.0,93,30.27,-9999.0,WSW,18.4,-,N/A,,Unknown,250,2012-11-13 12:00:00
6:00 AM,18.5,16.9,93,30.27,-9999.0,West,15.0,-,N/A,,Unknown,260,2012-11-13 13:00:00
7:00 AM,19.9,18.5,94,30.26,-9999.0,West,11.5,-,N/A,,Unknown,270,2012-11-13 14:00:00
8:00 AM,20.3,18.9,94,30.25,-9999.0,West,11.5,-,N/A,,Unknown,270,2012-11-13 15:00:00
9:00 AM,20.3,18.9,94,30.26,-9999.0,WSW,16.1,-,N/A,,Unknown,250,2012-11-13 16:00:00
10:00 AM,21.7,20.1,93,30.26,-9999.0,West,16.1,-,N/A,,Unknown,270,2012-11-13 17:00:00
11:00 AM,22,21,92,30.26,,West,17.3,,,,,260,2012-11-13 18:00:00
11:00 AM,22.3,20.7,93,30.26,-9999.0,West,17.3,-,N/A,,Unknown,260,2012-11-13 18:00:00
12:00 PM,22.8,21.2,93,30.25,-9999.0,West,16.1,-,N/A,,Unknown,260,2012-11-13 19:00:00
1:00 PM,23.0,21.4,94,30.24,-9999.0,West,16.1,-,N/A,,Unknown,270,2012-11-13 20:00:00
2:00 PM,24.1,22.5,94,30.22,-9999.0,West,18.4,-,N/A,,Unknown,260,2012-11-13 21:00:00
3:00 PM,24.8,23.2,94,30.21,-9999.0,West,16.1,-,N/A,,Unknown,260,2012-11-13 22:00:00
4:00 PM,24.6,23.4,95,30.20,-9999.0,West,15.0,-,N/A,,Unknown,260,2012-11-13 23:00:00
5:00 PM,24,23,93,30.20,,WSW,16.1,,,,,250,2012-11-14 00:00:00
5:00 PM,24.1,22.8,95,30.20,-9999.0,WSW,16.1,-,N/A,,Unknown,250,2012-11-14 00:00:00
6:00 PM,24.1,22.8,95,30.19,-9999.0,West,13.8,-,N/A,,Unknown,260,2012-11-14 01:00:00
7:00 PM,23.9,22.8,96,30.18,-9999.0,West,15.0,-,N/A,,Unknown,260,2012-11-14 02:00:00
8:00 PM,24.1,23.0,96,30.17,-9999.0,West,16.1,-,N/A,,Unknown,270,2012-11-14 03:00:00
9:00 PM,24.1,23.0,96,30.17,-9999.0,West,16.1,-,N/A,,Unknown,270,2012-11-14 04:00:00
10:00 PM,24.4,23.4,96,30.15,-9999.0,West,15.0,-,N/A,,Unknown,270,2012-11-14 05:00:00
11:00 PM,24,23,95,30.13,,West,15.0,,,,,270,2012-11-14 06:00:00
11:00 PM,24.3,23.2,96,30.13,-9999.0,West,15.0,-,N/A,,Unknown,270,2012-11-14 06:00:00